This demonstration page uses our WeatherBlox Daily Observations layout. Learn more.

Hourly Observations for May 28, 2015

Temp ( °F °C ) Dew Point ( °F °C ) Humidity (%) Winds ( mph kmh ) Pressure ( in mb ) Visibility ( mi km ) Precip ( " mm )
12:15 am 00:15 Clear 64 17.6 59 14.8 84 84 SSE 8 13 29.97 1015 10 16.0934 0 0
12:35 am 00:35 Clear 63 17.2 59 14.8 86 86 SE 7 11 29.97 1015 10 16.0934 0 0
12:55 am 00:55 Clear 63 17.4 59 14.9 85 85 SE 7 11 29.97 1015 10 16.0934 0 0
1:15 am 01:15 Clear 63 17.3 59 14.9 86 86 SSE 8 13 29.97 1015 10 16.0934 0 0
1:35 am 01:35 Clear 63 17.1 59 14.8 86 86 SE 7 11 29.97 1015 10 16.0934 0 0
1:55 am 01:55 Clear 62 16.5 58 14.6 89 89 SE 7 11 29.94 1014 10 16.0934 0 0
2:15 am 02:15 Clear 61 16.1 58 14.5 90 90 SSE 6 9 29.94 1014 10 16.0934 0 0
2:35 am 02:35 Clear 60 15.8 58 14.3 91 91 SE 7 11 29.94 1014 10 16.0934 0 0
2:50 am 02:50 Clear 60 15.5 57 14 91 91 SE 7 11 29.94 1014 10 16.0934 0 0
3:15 am 03:15 Clear 59 15.2 57 14 93 93 SE 7 11 29.97 1015 10 16.0934 0 0
3:35 am 03:35 Clear 59 15 57 13.7 92 92 SSE 6 9 29.97 1015 10 16.0934 0 0
3:55 am 03:55 Clear 59 14.9 56 13.6 92 92 S 6 9 30 1016 10 16.0934 0 0
4:15 am 04:15 Clear 59 14.8 56 13.5 92 92 S 5 7 30 1016 10 16.0934 0 0
4:35 am 04:35 Clear 58 14.5 56 13.2 92 92 S 3 6 30 1016 10 16.0934 0 0
4:55 am 04:55 Clear 57 14.1 55 12.9 93 93 Calm 30 1016 10 16.0934 0 0
5:15 am 05:15 Clear 56 13.4 54 12.3 93 93 SE 6 9 30 1016 10 16.0934 0 0
5:35 am 05:35 Clear 56 13.2 54 12.2 94 94 SE 7 11 30 1016 10 16.0934 0 0
5:55 am 05:55 Clear 56 13.6 55 12.7 94 94 SSE 7 11 30 1016 10 16.0934 0 0
6:10 am 06:10 Clear 56 13.5 55 12.5 94 94 SSE 5 7 30 1016 10 16.0934 0 0
6:35 am 06:35 Sunny 56 13.4 54 12.3 93 93 Calm 30 1016 10 16.0934 0 0
6:55 am 06:55 Sunny 55 12.8 53 11.7 93 93 Calm 30 1016 10 16.0934 0 0
7:15 am 07:15 Sunny 56 13.1 54 12.2 94 94 Calm 30 1016 10 16.0934 0 0
7:35 am 07:35 Sunny 57 13.8 55 12.9 94 94 Calm 30 1016 10 16.0934 0 0
7:55 am 07:55 Sunny 59 15.1 57 14 93 93 ESE 3 6 30 1016 10 16.0934 0 0
8:15 am 08:15 Sunny 61 15.9 58 14.5 91 91 SE 8 13 30 1016 10 16.0934 0 0
8:35 am 08:35 Sunny 61 16.1 58 14.5 90 90 SE 10 17 30 1016 10 16.0934 0 0
8:55 am 08:55 Sunny 62 16.7 58 14.7 88 88 SE 8 13 29.97 1015 10 16.0934 0 0
9:15 am 09:15 Sunny 63 17.4 58 14.5 83 83 SE 7 11 29.97 1015 10 16.0934 0 0
9:35 am 09:35 Sunny 65 18.1 58 14.4 79 79 SSE 8 13 29.97 1015 10 16.0934 0 0
9:55 am 09:55 Sunny 66 19 57 13.8 72 72 S 10 17 29.97 1015 10 16.0934 0 0
10:15 am 10:15 Partly Cloudy 67 19.3 56 13.6 70 70 SSE 14 22 29.97 1015 10 16.0934 0 0
10:35 am 10:35 Mostly Cloudy 66 18.7 57 13.8 73 73 S 13 20 29.97 1015 10 16.0934 0 0
10:55 am 10:55 Cloudy 65 18.4 57 13.8 75 75 S 13 20 29.94 1014 10 16.0934 0 0
11:15 am 11:15 Cloudy 66 18.7 56 13.5 72 72 S 12 19 29.94 1014 10 16.0934 0 0
11:35 am 11:35 Mostly Cloudy 65 18.6 56 13.2 71 71 S 10 17 29.94 1014 10 16.0934 0 0
11:55 am 11:55 Partly Cloudy 67 19.3 56 13.3 68 68 S 13 20 29.94 1014 10 16.0934 0 0
12:15 pm 12:15 Partly Cloudy 68 20.1 56 13.1 64 64 S 15 24 29.91 1013 10 16.0934 0 0
12:35 pm 12:35 Sunny 68 20 57 13.9 68 68 S 15 24 29.91 1013 10 16.0934 0 0
12:55 pm 12:55 Sunny 68 20 58 14.2 69 69 S 14 22 29.91 1013 10 16.0934 0 0
1:15 pm 13:15 Sunny 68 20.1 58 14.2 69 69 S 13 20 29.91 1013 10 16.0934 0 0
1:35 pm 13:35 Sunny 69 20.6 58 14.5 68 68 SSE 15 24 29.91 1013 10 16.0934 0 0
1:55 pm 13:55 Sunny 69 20.7 59 14.8 69 69 SSE 12 19 29.91 1013 10 16.0934 0 0
2:15 pm 14:15 Sunny 71 21.5 59 15.1 67 67 SSE 13 20 29.88 1012 10 16.0934 0 0
2:35 pm 14:35 Sunny 71 21.9 59 15.1 65 65 S 13 20 29.88 1012 10 16.0934 0 0
2:55 pm 14:55 Sunny 73 22.8 59 15 62 62 S 15 24 29.85 1011 10 16.0934 0 0
3:15 pm 15:15 Mostly Cloudy 76 24.2 58 14.7 55 55 SSW 14 22 29.85 1011 10 16.0934 0 0
3:35 pm 15:35 Mostly Cloudy 75 24.1 59 14.8 56 56 S 15 24 29.83 1010 10 16.0934 0 0
3:55 pm 15:55 Partly Cloudy 76 24.2 58 14.4 54 54 SSW 12 19 29.83 1010 10 16.0934 0 0
4:15 pm 16:15 Partly Cloudy 77 25 58 14.3 52 52 SSW 12 19 29.8 1009 7 11.26538 0 0
4:35 pm 16:35 Partly Cloudy 76 24.5 58 14.5 54 54 S 13 20 29.8 1009 10 16.0934 0 0
4:55 pm 16:55 Mostly Cloudy 76 24.2 58 14.5 55 55 S 13 20 29.8 1009 10 16.0934 0 0
5:15 pm 17:15 Mostly Cloudy 75 24 58 14.4 55 55 S 14 22 29.8 1009 10 16.0934 0 0
5:35 pm 17:35 Cloudy 75 23.8 58 14.2 55 55 S 14 22 29.77 1008 10 16.0934 0 0
5:55 pm 17:55 Mostly Cloudy 75 23.9 58 14.5 56 56 S 12 19 29.77 1008 10 16.0934 0 0
6:15 pm 18:15 Mostly Cloudy 75 23.7 59 14.8 58 58 S 12 19 29.77 1008 10 16.0934 0 0
6:35 pm 18:35 Mostly Cloudy 74 23.6 59 15.1 59 59 S 16 26 29.77 1008 10 16.0934 0 0
6:55 pm 18:55 Mostly Cloudy 74 23.5 59 15.1 59 59 S 15 24 29.77 1008 10 16.0934 0 0
7:15 pm 19:15 Mostly Cloudy 74 23.3 59 15 60 60 S 10 17 29.77 1008 10 16.0934 0 0
7:35 pm 19:35 Mostly Cloudy 73 23 59 15 61 61 S 14 22 29.8 1009 10 16.0934 0 0
7:55 pm 19:55 Mostly Cloudy 73 22.5 59 15.1 63 63 S 9 15 29.8 1009 10 16.0934 0 0
8:15 pm 20:15 Partly Cloudy 72 22.1 60 15.3 65 65 S 12 19 29.83 1010 10 16.0934 0 0
8:35 pm 20:35 Partly Cloudy 71 21.6 60 15.5 68 68 S 8 13 29.85 1011 10 16.0934 0 0
8:55 pm 20:55 Partly Cloudy 70 21.2 60 15.6 71 71 S 5 7 29.85 1011 10 16.0934 0 0
9:15 pm 21:15 Clear 70 20.9 60 15.6 72 72 SW 6 9 29.85 1011 10 16.0934 0 0
9:35 pm 21:35 Mostly Cloudy 69 20.5 53 11.7 57 57 W 29 46 29.88 1012 10 16.0934 0 0
9:55 pm 21:55 Partly Cloudy 64 18 50 10.2 61 61 WNW 14 22 29.91 1013 10 16.0934 0 0
10:15 pm 22:15 Clear 63 17.1 51 10.8 67 67 W 9 15 29.91 1013 10 16.0934 0 0
10:35 pm 22:35 Clear 62 16.8 52 11 69 69 WNW 9 15 29.88 1012 10 16.0934 0 0
10:55 pm 22:55 Partly Cloudy 62 16.5 52 11 70 70 WNW 6 9 29.88 1012 10 16.0934 0 0
11:15 pm 23:15 Mostly Cloudy 62 16.6 52 11 70 70 Calm 29.85 1011 10 16.0934 0 0
11:35 pm 23:35 Cloudy 61 16.3 53 11.5 73 73 Calm 29.88 1012 10 16.0934 0 0
11:55 pm 23:55 Cloudy 61 16.1 53 11.7 75 75 SE 9 15 29.88 1012 10 16.0934 0 0

Powered by AerisWeather